Flag for Mexico Weather past 2 weeks in Ojinaga, Chihuahua, Mexico

Now
88 °F

Passing clouds.


Feels Like: 84 °F
Forecast: 61 / 98 °F
Wind: 15 mph from South

Location: Marfa Municipal Airport

Current Time: May 27, 2015 at 3:12:24 PM

Latest Report: May 27, 2015 at 2:35 PM


Visibility: 10 mi

Pressure: 30.11 "Hg

Humidity: 21%

Dew point: 43 °F

Location of OjinagaLocation

Historic Weather in Ojinaga — Graph

°F

Ojinaga temperature yesterday

Maximum temperature yesterday: 84 °F (at 3:15 PM)
Minimum temperature yesterday: 43 °F (at 6:15 AM)
Average temperature yesterday: 66 °F

Past Weeks' High & Low Weather Summary

 TemperatureHumidityPressure
High88 °F (May 19, 3:35 PM)100% (May 13, 5:15 AM)30.21 "Hg (May 13, 5:15 AM)
Low43 °F (May 17, 2:55 AM)11% (May 26, 5:15 PM)29.89 "Hg (May 15, 6:35 PM)
Average67 °F51%30.08 "Hg
* Reported May 12 1:15 PM — May 27 1:55 PM, Ojinaga, Weather by CustomWeather, © 2015

Note: Actual official high and low records may vary slightly from our data, if they occured in-between our weather recording intervals... More about our weather records

Advertising

Ojinaga weather history for previous 24 hours

 ConditionsComfort  
Time TempWeatherWind HumidityBarometerVisibility
1:55 PM
Wed, May 27
88 °FSunny.13 mph22%30.13 "Hg10 mi
1:35 PM88 °FSunny.15 mph24%30.13 "Hg10 mi
1:15 PM86 °FSunny.16 mph25%30.14 "Hg10 mi
12:55 PM84 °FSunny.13 mph29%30.14 "Hg10 mi
12:35 PM84 °FSunny.13 mph31%30.15 "Hg10 mi
12:15 PM84 °FSunny.13 mph31%30.15 "Hg10 mi
11:55 AM84 °FSunny.7 mph29%30.16 "Hg10 mi
11:35 AM84 °FSunny.8 mph33%30.16 "Hg10 mi
11:15 AM82 °FSunny.13 mph37%30.16 "Hg10 mi
10:55 AM81 °FSunny.8 mph39%30.17 "Hg10 mi
10:35 AM81 °FSunny.8 mph42%30.18 "Hg10 mi
10:15 AM79 °FSunny.10 mph45%30.18 "Hg10 mi
9:55 AM77 °FSunny.7 mph51%30.18 "Hg10 mi
9:35 AM75 °FSunny.7 mph50%30.18 "Hg10 mi
9:15 AM75 °FSunny.5 mph54%30.18 "Hg10 mi
8:55 AM73 °FSunny.3 mph57%30.19 "Hg10 mi
8:35 AM72 °FSunny.6 mph61%30.18 "Hg10 mi
8:15 AM72 °FSunny.No wind61%30.18 "Hg10 mi
7:55 AM70 °FSunny.No wind64%30.17 "Hg10 mi
7:35 AM66 °FSunny.No wind68%30.17 "Hg10 mi
7:15 AM63 °FSunny.3 mph73%30.16 "Hg10 mi
6:55 AM57 °FClear.5 mph77%30.15 "Hg9 mi
6:35 AM54 °FClear.7 mph82%30.15 "Hg10 mi
6:15 AM52 °FClear.9 mph77%30.14 "Hg10 mi
5:55 AM52 °FClear.6 mph77%30.14 "Hg10 mi
5:35 AM52 °FClear.6 mph77%30.14 "Hg10 mi
5:15 AM50 °FClear.7 mph82%30.13 "Hg10 mi
4:55 AM50 °FClear.5 mph76%30.13 "Hg10 mi
4:35 AM52 °FClear.7 mph77%30.13 "Hg10 mi
4:15 AM52 °FClear.7 mph77%30.13 "Hg10 mi
3:55 AM48 °FClear.6 mph82%30.13 "Hg10 mi
3:35 AM50 °FClear.5 mph82%30.13 "Hg10 mi
3:15 AM52 °FClear.3 mph72%30.12 "Hg10 mi
2:55 AM52 °FClear.3 mph72%30.12 "Hg10 mi
2:35 AM52 °FClear.3 mph67%30.12 "Hg10 mi
2:15 AM54 °FClear.5 mph63%30.12 "Hg10 mi
1:55 AM54 °FClear.8 mph58%30.11 "Hg10 mi
1:35 AM54 °FClear.9 mph58%30.12 "Hg10 mi
1:15 AM54 °FClear.8 mph58%30.12 "Hg10 mi
12:55 AM54 °FClear.12 mph58%30.11 "Hg10 mi
12:35 AM55 °FClear.7 mph63%30.12 "Hg10 mi
12:15 AM57 °FClear.No wind59%30.11 "Hg10 mi
11:55 PM
Tue, May 26
57 °FClear.3 mph51%30.11 "Hg10 mi
11:35 PM63 °FClear.6 mph42%30.11 "Hg10 mi
11:15 PM63 °FClear.9 mph39%30.11 "Hg10 mi
10:55 PM63 °FClear.9 mph37%30.11 "Hg10 mi
10:35 PM63 °FClear.10 mph39%30.11 "Hg10 mi
9:55 PM64 °FClear.10 mph37%30.11 "Hg10 mi
9:35 PM63 °FClear.8 mph39%30.11 "Hg10 mi
9:15 PM63 °FClear.9 mph34%30.10 "Hg10 mi
8:55 PM61 °FClear.8 mph36%30.10 "Hg10 mi
8:35 PM64 °FSunny.8 mph32%30.10 "Hg10 mi
8:15 PM70 °FSunny.6 mph25%30.09 "Hg10 mi
7:55 PM75 °FSunny.3 mph18%30.09 "Hg10 mi
7:35 PM75 °FSunny.3 mph18%30.08 "Hg10 mi
7:15 PM79 °FSunny.5 mph15%30.08 "Hg10 mi
6:55 PM81 °FSunny.7 mph12%30.07 "Hg10 mi
6:35 PM82 °FSunny.8 mph11%30.07 "Hg10 mi
6:15 PM82 °FSunny.6 mph11%30.07 "Hg10 mi
5:55 PM82 °FSunny.8 mph12%30.07 "Hg10 mi
5:35 PM84 °FSunny.7 mph11%30.07 "Hg10 mi
5:15 PM84 °FSunny.7 mph11%30.07 "Hg10 mi
4:55 PM84 °FSunny.8 mph12%30.07 "Hg10 mi
4:35 PM84 °FSunny.6 mph12%30.08 "Hg10 mi
3:35 PM84 °FSunny.10 mph12%30.09 "Hg10 mi
3:15 PM84 °FSunny.6 mph13%30.10 "Hg10 mi
Weather by CustomWeather, © 2015

See weather overviewHow to use our weather pages